www.pogodaiklimat.ru

Погода и климат >> Архив погоды >> Норвегия >> Маяк Krakenes


ПОГОДА на Маяке Krakenes

  • Прогноз погоды на Маяке Krakenes
  • Монитор погоды на Маяке Krakenes

АРХИВ ПОГОДЫ на Маяке Krakenes

Время (UTC), дата Ветер
(напр.,м/с)
 
Видим.   Явления Облачность Т
(С)
Тd
(С)
f
(%)
Тe
(С)
Тes
(С)
Комфортность P
(гПа)
Po
(гПа)
Тmin
(С)
Tmax
(С)
R
(мм)
R24
(мм)
S
(см)
22 11.06 СВ 10
{17}
н/о н/о +10.7 +10.6 99 +6 +6 1023.6 1018.7
23 11.06 СВ 8
{13}
н/о н/о +10.8 +10.7 99 +7 +7 1023.6 1018.7
00 12.06 СВ 7
{19}
н/о н/о +10.7 +10.6 99 +7 +7 1023.6 1018.7
01 12.06 СВ 6
{9}
н/о н/о +10.5 +10.4 99 +7 +7 1023.1 1018.2
02 12.06 В 5
{10}
н/о н/о +10.6 +10.5 99 +7 +7 1022.7 1017.8
03 12.06 В 7
{10}
н/о н/о +10.8 +10.7 99 +7 +7 1022.1 1017.2
04 12.06 В 7
{9}
н/о н/о +11.2 +10.0 92 +8 +8 1022.0 1017.1
05 12.06 В 6
{9}
н/о н/о +11.6 +11.1 97 +9 +9 1022.2 1017.3
06 12.06 СВ 7
{10}
н/о н/о +11.5 +10.7 95 +8 +8 1022.0 1017.1 +10.3 +12.5
07 12.06 СВ 6
{9}
н/о н/о +11.7 +11.1 96 +9 +9 1021.3 1016.5
08 12.06 В 6
{9}
н/о н/о +11.9 +11.8 99 +9 +9 1021.1 1016.3
09 12.06 СВ 5
{7}
н/о н/о +11.9 +11.8 99 +9 +9 1020.5 1015.7
10 12.06 СВ 5
{6}
н/о н/о +12.5 +11.7 95 +10 +10 1020.6 1015.8
11 12.06 С 8
{10}
н/о н/о +11.5 +11.4 99 +8 +8 1020.1 1015.3
12 12.06 С 7
{10}
н/о н/о +11.9 +11.8 99 +9 +9 1019.5 1014.7
13 12.06 СВ 7
{9}
н/о н/о +12.2 +11.7 97 +9 +9 1018.8 1014.0
14 12.06 С 7
{9}
н/о н/о +12.4 +12.1 98 +9 +9 1018.3 1013.5
15 12.06 С 8
{13}
н/о н/о +12.0 +11.9 99 +9 +9 1017.7 1012.9
16 12.06 С 6
{11}
н/о н/о +12.2 +11.9 98 +9 +9 1017.1 1012.3
17 12.06 С 13
{15}
н/о н/о +10.2 +10.1 99 +5 +5 1016.8 1012.0
18 12.06 С 12
{17}
н/о н/о +9.9 +9.8 99 +5 +5 1016.2 1011.3 +9.8 +13.0
19 12.06 С 10
{15}
н/о н/о +10.1 +10.0 99 +5 +5 1015.6 1010.8
20 12.06 СВ 7
{13}
н/о н/о +10.8 +10.7 99 +7 +7 1015.1 1010.3
21 12.06 С 12
{14}
н/о н/о +9.8 +9.7 99 +5 +5 1014.2 1009.4
22 12.06 СВ 10
{14}
н/о н/о +9.6 +9.5 99 +5 +5 1013.8 1009.0
23 12.06 СВ 7
{13}
н/о н/о +10.0 +9.9 99 +6 +6 1013.0 1008.2
00 13.06 СВ 5
{15}
н/о н/о +9.9 +9.8 99 +7 +7 1012.4 1007.6
01 13.06 СВ 4
{7}
н/о н/о +10.2 +10.1 99 +7 +7 1011.2 1006.4
02 13.06 С 7
{9}
н/о н/о +9.6 +9.5 99 +5 +5 1010.1 1005.3
03 13.06 СВ 5
{9}
н/о н/о +10.0 +9.9 99 +7 +7 1008.8 1004.0
04 13.06 СВ 4
{6}
н/о н/о +10.2 +10.1 99 +7 +7 1007.5 1002.7
05 13.06 СВ 5
{7}
н/о н/о +10.4 +10.3 99 +7 +7 1006.3 1001.5
06 13.06 В 5
{9}
н/о н/о +10.8 +10.7 99 +8 +8 1005.4 1000.6 +9.5 +11.1
07 13.06 В 2
{6}
н/о н/о +10.8 +10.7 99 +9 +9 1005.4 1000.6
08 13.06 СВ 1
{4}
н/о н/о +10.6 +10.5 99 +10 +10 1005.9 1001.1
09 13.06 С 2
{3}
н/о н/о +10.7 +10.6 99 +9 +9 1005.8 1001.0
10 13.06 СВ 2
{2}
н/о н/о +11.4 +11.3 99 +10 +10 1005.8 1001.0
11 13.06 В 3
{4}
н/о н/о +11.0 +10.9 99 +9 +9 1006.0 1001.2
12 13.06 В 2
{6}
н/о н/о +11.2 +11.1 99 +10 +10 1006.2 1001.4
13 13.06 В 2
{3}
н/о н/о +11.7 +11.6 99 +10 +10 1006.8 1002.0
14 13.06 ЮЗ 2
{3}
н/о н/о +12.5 +12.4 99 +11 +11 1007.3 1002.5
15 13.06 ЮЗ 2
{3}
н/о н/о +12.3 +12.2 99 +11 +11 1008.3 1003.5
16 13.06 ЮЗ 2
{3}
н/о н/о +12.2 +12.1 99 +11 +11 1008.8 1004.0
17 13.06 Ю 11
{16}
н/о н/о +12.1 +12.0 99 +8 +8 1008.9 1004.1
18 13.06 Ю 9
{16}
н/о н/о +13.5 +10.3 81 +11 +11 1009.8 1005.0 +10.4 +13.6
19 13.06 Ю 2
{10}
н/о н/о +13.3 +12.0 92 +13 +13 1011.1 1006.3
20 13.06 СВ 1
{7}
н/о н/о +12.3 +12.2 99 +12 +12 1011.5 1006.7
21 13.06 В 5
{6}
н/о н/о +12.7 +12.6 99 +10 +10 1012.5 1007.7
22 13.06 СВ 6
{9}
н/о н/о +11.9 +11.8 99 +9 +9 1012.9 1008.1
23 13.06 СВ 8
{10}
н/о н/о +12.0 +11.9 99 +9 +9 1013.2 1008.4
00 14.06 В 7
{10}
н/о н/о +12.6 +12.5 99 +10 +10 1013.0 1008.2
01 14.06 В 8
{9}
н/о н/о +13.2 +11.9 92 +10 +10 1012.9 1008.1
02 14.06 В 6
{10}
н/о н/о +13.6 +11.1 85 +11 +11 1013.2 1008.4
03 14.06 Ю 2
{7}
н/о н/о +13.3 +13.2 99 +12 +12 1013.8 1009.0
04 14.06 С 1
{3}
н/о н/о +13.5 +11.9 90 +14 +14 1014.0 1009.2
05 14.06 Ю 4
{5}
н/о н/о +13.2 +12.9 98 +11 +11 1014.4 1009.6
06 14.06 СЗ 1
{10}
н/о н/о +14.3 +11.6 84 +15 +15 1014.9 1010.1 +11.7 +16.2
07 14.06 В 3
{4}
н/о н/о +14.2 +11.7 85 +13 +13 1014.9 1010.1
08 14.06 СВ 2
{4}
н/о н/о +15.7 +9.2 65 +16 +16 1015.4 1010.7
09 14.06 СВ 2
{3}
н/о н/о +16.8 +8.8 59 +17 +17 1015.5 1010.8
10 14.06 СВ 2
{3}
н/о н/о +18.4 +8.9 54 +19 +19 1015.5 1010.8
11 14.06 С 2
{5}
н/о н/о +17.0 +7.4 53 +17 +17 1015.5 1010.8
12 14.06 СВ 3
{5}
н/о н/о +17.2 +7.8 54 +17 +17 1015.6 1010.9
13 14.06 СВ 2
{4}
н/о н/о +19.4 +9.0 51 +21 +21 комфорт 1015.7 1011.0
14 14.06 С 4
{7}
н/о н/о +17.4 +8.8 57 +17 +17 1015.5 1010.8
15 14.06
{10}
н/о н/о +15.4 +9.3 67 1015.4 1010.6
16 14.06 СВ 2
{10}
н/о н/о +16.3 +6.2 51 +16 +16 1015.9 1011.2
17 14.06 Ю 12
{16}
н/о н/о +14.8 +9.2 69 +12 +12 1015.8 1011.0
18 14.06 Ю 12
{17}
н/о н/о +14.4 +9.4 72 +11 +11 1016.2 1011.4 +13.7 +20.0
19 14.06 Ю 9
{15}
н/о н/о +14.0 +10.2 78 +11 +11 1017.3 1012.5
20 14.06 Ю 8
{11}
н/о н/о +14.0 +10.6 80 +12 +12 1017.9 1013.1
21 14.06 ЮЗ 8
{11}
н/о н/о +13.0 +12.7 98 +10 +10 1018.1 1013.3
22 14.06 СВ 1
{7}
н/о н/о +13.0 +12.9 99 +13 +13 1018.7 1013.9
23 14.06 ЮЗ 3
{4}
н/о н/о +13.0 +12.9 99 +11 +11 1018.8 1014.0
00 15.06 В 2
{15}
н/о н/о +13.0 +12.9 99 +12 +12 1019.2 1014.4
01 15.06 ЮЗ 4
{5}
н/о н/о +13.5 +12.2 92 +12 +12 1019.5 1014.7
02 15.06 Ю 4
{6}
н/о н/о +13.1 +13.0 99 +11 +11 1019.3 1014.5
03 15.06 ЮВ 1
{4}
н/о н/о +13.0 +12.9 99 +13 +13 1019.5 1014.7
04 15.06 В 2
{2}
н/о н/о +13.3 +12.5 95 +12 +12 1019.6 1014.8
05 15.06 В 3
{5}
н/о н/о +13.7 +13.1 96 +12 +12 1019.4 1014.6
06 15.06 В 3
{6}
н/о н/о +14.3 +11.3 82 +13 +13 1019.7 1014.9 +12.5 +14.7
07 15.06 СВ 3
{4}
н/о н/о +15.1 +10.9 76 +14 +14 1019.9 1015.1
08 15.06 СВ 4
{6}
н/о н/о +14.2 +13.9 98 +13 +13 1019.9 1015.1
09 15.06 СВ 6
{8}
н/о н/о +14.9 +13.1 89 +13 +13 1019.6 1014.8
10 15.06 СВ 9
{10}
н/о н/о +15.1 +12.1 82 +13 +13 1019.0 1014.2
11 15.06 СВ 10
{12}
н/о н/о +14.9 +11.1 78 +12 +12 1018.3 1013.5
12 15.06 СВ 11
{13}
н/о н/о +15.0 +11.6 80 +12 +12 1017.7 1012.9
13 15.06 СВ 10
{13}
н/о н/о +15.2 +10.0 71 +13 +13 1017.1 1012.3
14 15.06 С 8
{13}
н/о н/о +14.6 +11.8 83 +12 +12 1016.5 1011.7
15 15.06 СВ 7
{12}
н/о н/о +15.4 +11.6 78 +14 +14 1016.3 1011.5
16 15.06 СВ 4
{8}
н/о н/о +16.3 +10.8 70 +16 +16 1015.7 1011.0
17 15.06 СВ 6
{8}
н/о н/о +15.8 +12.9 83 +14 +14 1014.9 1010.2
18 15.06 СВ 4
{13}
н/о н/о +15.9 +12.5 80 +15 +15 1014.4 1009.7 +14.1 +16.6
19 15.06 СВ 3
{5}
н/о н/о +15.5 +13.7 89 +15 +15 1013.9 1009.2
20 15.06 В 5
{6}
н/о н/о +15.9 +15.1 95 +15 +15 1013.4 1008.7
21 15.06 СВ 5
{7}
н/о н/о +15.3 +14.3 94 +14 +14 1013.1 1008.4
22 15.06 В 6
{7}
н/о н/о +15.9 +13.4 85 +15 +15 1012.6 1007.9
23 15.06 В 5 н/о н/о +15.6 +13.6 88 +14 +14 1012.0 1007.3
00 16.06 Ю 11
{15}
н/о н/о +18.3 +10.2 59 +17 +17 1011.8 1007.1
01 16.06 Ю 6
{13}
н/о н/о +17.3 +10.4 64 +16 +16 1012.5 1007.8
02 16.06 штиль 0
{7}
н/о н/о +16.8 +10.7 67 +17 +17 1012.1 1007.4
03 16.06 З 1
{2}
н/о н/о +15.9 +11.3 74 +17 +17 1012.1 1007.4
04 16.06 Ю 2
{3}
н/о н/о +15.4 +12.0 80 +15 +15 1011.8 1007.1
05 16.06 В 5
{5}
н/о н/о +13.8 +13.7 99 +12 +12 1011.5 1006.7
06 16.06 В 5
{13}
н/о н/о +14.7 +13.9 95 +13 +13 1011.0 1006.3 +13.5 +18.6
07 16.06 ЮЗ 4
{6}
н/о н/о +14.8 +14.6 99 +13 +13 1010.9 1006.2
08 16.06 СЗ 1
{4}
н/о н/о +15.4 +13.1 86 +16 +16 1011.1 1006.4
09 16.06 Ю 6
{10}
н/о н/о +15.4 +14.6 95 +14 +14 1011.5 1006.8
10 16.06 ЮЗ 9
{11}
н/о н/о +13.5 +13.4 99 +10 +10 1011.8 1007.0
11 16.06 Ю 7
{13}
н/о н/о +12.3 +12.2 99 +9 +9 1012.5 1007.7
12 16.06 Ю 16
{18}
н/о н/о +12.3 +12.2 99 +8 +8 1011.4 1006.6
13 16.06 Ю 10
{18}
н/о н/о +12.2 +12.1 99 +8 +8 1013.1 1008.3
14 16.06 ЮЗ 8
{14}
н/о н/о +12.4 +12.3 99 +9 +9 1013.4 1008.6
15 16.06 ЮЗ 9
{11}
н/о н/о +12.3 +12.2 99 +9 +9 1013.2 1008.4
16 16.06 ЮЗ 8
{12}
н/о н/о +12.7 +12.6 99 +10 +10 1013.6 1008.8
17 16.06 ЮЗ 6
{9}
н/о н/о +11.9 +11.8 99 +9 +9 1014.0 1009.2
18 16.06 ЮЗ 5
{18}
н/о н/о +13.0 +11.2 89 +11 +11 1013.8 1009.0 +11.9 +15.9
19 16.06 Ю 8
{11}
н/о н/о +11.9 +11.8 99 +8 +8 1013.8 1009.0
20 16.06 ЮЗ 13
{15}
н/о н/о +11.6 +11.5 99 +7 +7 1013.4 1008.6
21 16.06 Ю 9
{16}
н/о н/о +12.3 +11.8 97 +9 +9 1014.3 1009.5
22 16.06 Ю 8
{11}
н/о н/о +12.4 +10.1 86 +9 +9 1014.1 1009.3
23 16.06 Ю 10
{12}
н/о н/о +12.4 +7.9 74 +9 +9 1014.2 1009.4
00 17.06 Ю 8
{16}
н/о н/о +12.5 +7.8 73 +10 +10 1014.5 1009.7
01 17.06 Ю 10
{15}
н/о н/о +12.7 +5.4 61 +10 +10 1014.0 1009.2
02 17.06 Ю 8
{15}
н/о н/о +12.9 +5.8 62 +10 +10 1014.0 1009.2
03 17.06 Ю 5
{12}
н/о н/о +12.9 +4.9 58 +11 +11 1014.3 1009.5
04 17.06 Ю 4
{8}
н/о н/о +13.1 +3.5 52 +12 +12 1014.2 1009.4
05 17.06 Ю 6
{10}
н/о н/о +13.5 +3.9 52 +12 +12 1013.7 1008.9
06 17.06 Ю 6
{15}
н/о н/о +13.9 +3.4 49 +12 +12 1013.2 1008.4 +11.3 +13.9
07 17.06 Ю 6
{11}
н/о н/о +14.3 +4.0 50 +13 +13 1013.1 1008.3
08 17.06 Ю 5
{11}
н/о н/о +14.0 +5.1 55 +12 +12 1012.8 1008.0
09 17.06 З 3
{7}
н/о н/о +13.9 +9.0 72 +13 +13 1012.5 1007.7
10 17.06 Ю 3
{7}
н/о н/о +13.9 +9.0 72 +13 +13 1012.0 1007.2
11 17.06 СЗ 1
{3}
н/о н/о +14.6 +6.9 60 +15 +15 1011.3 1006.5
12 17.06 ЮЗ 7
{11}
н/о н/о +12.6 +10.8 89 +10 +10 1011.6 1006.8
13 17.06 ЮВ 6
{15}
н/о н/о +14.2 +9.0 71 +12 +12 1010.9 1006.1
14 17.06 В 7
{11}
н/о н/о +12.7 +12.6 99 +10 +10 1010.6 1005.8
15 17.06 Ю 6
{12}
н/о н/о +14.1 +12.3 89 +12 +12 1010.0 1005.2
16 17.06 Ю 12
{17}
н/о н/о +13.4 +13.2 99 +10 +10 1009.6 1004.8
17 17.06 Ю 15
{21}
н/о н/о +13.6 +11.8 89 +10 +10 1008.5 1003.7
18 17.06 Ю 18
{22}
н/о н/о +13.4 +11.1 86 +9 +9 1008.6 1003.8 +12.2 +15.5
19 17.06 Ю 17
{23}
н/о н/о +13.1 +9.6 79 +9 +9 1008.2 1003.4
20 17.06 Ю 15
{22}
н/о н/о +12.8 +11.2 90 +9 +9 1009.0 1004.2
21 17.06 Ю 13
{19}
н/о н/о +12.7 +11.1 90 +9 +9 1009.1 1004.3
22 17.06 Ю 13
{19}
н/о н/о +13.0 +9.6 80 +9 +9 1008.8 1004.0
23 17.06 Ю 14
{21}
н/о н/о +12.8 +10.2 84 +9 +9 1008.4 1003.6
00 18.06 Ю 15
{23}
н/о н/о +13.2 +8.9 75 +9 +9 1008.3 1003.5
01 18.06 Ю 13
{20}
н/о н/о +13.6 +7.4 66 +10 +10 1008.0 1003.2
02 18.06 Ю 15
{22}
н/о н/о +13.4 +6.8 64 +10 +10 1007.3 1002.5
03 18.06 Ю 13
{20}
н/о н/о +13.3 +8.8 74 +10 +10 1007.6 1002.8
04 18.06 Ю 15
{21}
н/о н/о +13.6 +9.3 75 +10 +10 1006.9 1002.2
05 18.06 Ю 14
{21}
н/о н/о +13.6 +9.3 75 +10 +10 1006.3 1001.6
06 18.06 Ю 18
{25}
н/о н/о +13.5 +10.1 80 +9 +9 1005.3 1000.6 +12.5 +14.0
07 18.06 Ю 21
{25}
н/о н/о +12.8 +11.7 93 +8 +8 1005.9 1001.1
08 18.06 Ю 17
{25}
н/о н/о +12.3 +11.7 96 +8 +8 1007.2 1002.4
09 18.06 Ю 19
{22}
н/о н/о +12.3 +10.4 88 +7 +7 1007.2 1002.4
10 18.06 Ю 19
{22}
н/о н/о +12.8 +8.7 76 +8 +8 1007.0 1002.2
11 18.06 Ю 16
{21}
н/о н/о +12.7 +9.2 79 +8 +8 1008.0 1003.2
12 18.06 Ю 15
{25}
н/о н/о +12.9 +10.1 83 +9 +9 1008.2 1003.4
13 18.06 Ю 14
{19}
н/о н/о +13.1 +11.0 87 +9 +9 1008.3 1003.5
14 18.06 Ю 14
{18}
н/о н/о +12.6 +12.5 99 +8 +8 1008.1 1003.3
15 18.06 Ю 15
{17}
н/о н/о +12.9 +12.8 99 +9 +9 1007.3 1002.5
17 18.06 Ю 16
{19}
н/о н/о +12.8 +10.7 87 +9 +9 1007.1 1002.3
18 18.06 Ю 16
{19}
н/о н/о +12.3 +12.2 99 +8 +8 1006.9 1002.1 +11.9 +13.5
19 18.06 Ю 15
{20}
н/о н/о +12.3 +11.0 92 +8 +8 1007.1 1002.3
20 18.06 Ю 14
{17}
н/о н/о +12.0 +11.9 99 +7 +7 1007.4 1002.6
21 18.06 Ю 13
{17}
н/о н/о +12.0 +11.9 99 +8 +8 1007.8 1003.0
22 18.06 Ю 16
{18}
н/о н/о +12.0 +11.9 99 +7 +7 1007.4 1002.6

 

Местоположение метеостанции Маяк Krakenes (Норвегия): широта 62.03 долгота 4.99 высота над уровнем моря 75 м.

В архиве по умолчанию представлена погода на Маяке Krakenes за последнюю неделю. Архивные данные за месяц целиком и за предыдущие месяцы, начиная с января 2011 года, Вы можете получить, выбрав интересующий диапазон дат из раскрывающегося списка и нажав кнопку "Ввод!".


*Определитесь, кто Вы:
робот инопланетянин человек

Внимание! Время в таблицах - всемирное. Для получения местного времени необходимо прибавить поправку, которая равна 1 ч.

Смотрите также архив погоды в соседних городах и на ближайших метеорологических станциях:

Погода в Берген аэропорту (Норвегия) (31 км)
Погода в Фиске (Норвегия) (32 км)
Погода на Маяке Svinoy (Норвегия) (36 км)
Погода в Флоро аэропорту (Норвегия) (50 км)
Погода на Маяке Ytteroyane (Норвегия) (54 км)
Погода в Аэропорту Орста-Волда (Норвегия) (59 км)
Погода в Сандан аэропорту (Норвегия) (62 км)
Погода во Флурё (Норвегия) (79 км)
Погода в Олесунне (Норвегия) (80 км)
Погода во Флурё аэропорту (Норвегия) (82 км)

Пояснения к столбцам:

Ветер - указаны скорость ветра в м/с - средняя за 10 мин, порывы в срок и между сроками (в фигурных скобках) и направление, откуда дует ветер: С - северный, СВ - северо-восточный, В - восточный, ЮВ - юго-восточный, Ю - южный, ЮЗ - юго-западный, З - западный, СЗ - северо-западный.
Видимость - горизонтальная дальность видимости в метрах или километрах. При видимости от 1 до 10 км при отсутствии осадков обычно наблюдается дымка, при ухудшении видимости до 1 км и менее - туман. В сухую погоду видимость может ухудшаться дымом, пылью или мглою.
Явления - указаны атмосферные явления, наблюдавшиеся в срок или в последний час перед сроком; фигурными скобками обозначены явления, наблюдавшиеся между сроками (за 1-3 часа до срока); квадратными скобками обозначены град или гололедные отложения с указанием их диаметра в мм.
Облачность - указаны через наклонную черту общая и нижняя облачность в баллах и высота нижней границы облаков в метрах; квадратными скобками обозначены формы облаков: Ci - перистые, Cs - перисто-слоистые, Cc - перисто-кучевые, Ac - высококучевые, As - высокослоистые, Sc - слоисто-кучевые, Ns - слоисто-дождевые, Cu - кучевые, Cb - кучево-дождевые. Подробнее классификацию облаков см. в Атласе облаков (PDF).
T - Температура воздуха - температура, измеренная на высоте 2 м над землей.
Td - Температура точки росы - температура, при понижении до которой содержащийся в воздухе водяной пар достигнет насыщения.
f - Относительная влажность воздуха - влажноcть воздуха, измеренная на высоте 2 м над землей.
Te - Эффективная температура - температура, которую ощущает одетый по сезону человек в тени. Характеристика душности погоды. При расчете учитывается влияние влажности воздуха и скорости ветра на теплоощущения человека.
Tes - Эффективная температура на солнце - температура, которую ощущает человек, с поправкой на солнечный нагрев. Характеристика знойности погоды. Зависит от высоты солнца над горизонтом, облачности и скорости ветра. Ночью, в пасмурную погоду, а также при ветре 12 м/с и более поправка равна нулю.
P - Атмосферное давление - приведенное к уровню моря атмосферное давление.
Po - Атмосферное давление - измеренное на уровне метеостанции атмосферное давление.
Tmin - Минимальная температура - минимум температуры воздуха на высоте 2 м над землей.
Tmax - Максимальная температура - максимум температуры воздуха на высоте 2 м над землей.
R - Количество осадков - Количество выпавших осадков за период времени, мм. При наведении курсора мыши на число - период времени, за который выпало указанное количество осадков.
R24 - Количество осадков - Количество выпавших осадков за 24 часа, мм.
S - Снежный покров - Высота снежного покрова, см. При наведении курсора мыши на число - состояние снежного покрова и степень покрытия местности в баллах.